Wind_Speed
52 52 52 52 52 53 53 54 54 53 52 52 52 52 51 51 51 51 51 50 50 50 51 50 50 50 50 50 50 50 50 50 50 49 49 48 48 48
53 53 53 53 54 54 54 55 54 54 53 53 53 53 53 53 52 53 53 53 52 52 52 52 51 51 52 51 51 52 52 52 51 51 51 51 51 50
53 54 54 53 54 54 54 55 55 55 55 54 54 54 55 54 54 55 55 55 55 55 54 54 53 53 54 54 54 54 54 53 53 53 53 53 53 53
53 53 54 54 54 54 54 55 55 54 55 54 54 55 56 56 56 56 57 57 57 56 56 55 54 54 55 55 55 55 55 55 55 55 55 55 55 56
54 55 55 55 55 55 54 54 54 54 55 56 55 56 56 57 57 57 58 58 59 58 58 58 57 56 56 56 56 57 57 57 57 57 57 58 58 57
55 56 56 56 55 54 54 54 55 55 56 56 56 56 57 58 58 58 58 59 59 60 60 59 59 58 57 58 58 58 58 59 59 58 58 59 59 59
57 56 56 55 54 54 54 55 55 55 56 56 56 57 58 58 58 57 58 58 59 60 60 60 61 61 60 60 59 60 60 60 60 60 60 60 60 60
57 56 55 55 55 55 54 55 56 56 56 56 57 57 56 57 57 57 58 59 59 59 60 60 61 61 61 61 61 61 61 61 61 61 61 60 60 60
54 54 53 53 53 53 54 55 55 56 57 57 56 55 55 55 56 57 57 58 58 59 59 59 59 60 60 61 61 61 61 62 61 61 61 60 59 59
52 52 53 53 53 53 53 54 55 55 55 55 55 54 54 55 55 56 57 57 57 58 58 58 58 59 60 60 61 61 61 61 60 59 59 59 59 59
52 52 53 53 52 52 53 53 54 54 54 55 55 54 54 55 55 55 56 56 56 56 57 58 58 58 59 60 60 60 61 60 60 59 59 60 60 60
52 52 52 52 52 52 52 52 53 53 53 53 54 54 54 54 55 55 55 55 56 56 57 57 58 58 58 58 59 59 60 60 60 60 60 61 61 61
50 51 51 51 51 51 51 51 51 51 51 51 51 51 51 51 52 53 53 54 54 55 55 56 56 57 57 56 57 59 60 59 60 60 61 61 61 61
50 50 50 50 51 50 50 50 50 50 49 49 49 49 49 49 49 50 51 52 52 52 53 53 53 53 54 55 55 56 57 58 58 59 59 59 59 59
50 50 50 50 50 49 49 49 49 49 49 48 47 48 48 48 48 49 49 50 50 51 51 51 51 51 52 52 52 53 54 55 57 57 57 57 58 57
49 49 49 49 48 48 48 48 47 47 47 47 46 47 47 47 47 47 48 48 48 48 49 50 50 50 50 51 51 52 52 53 54 56 56 56 56 56
48 48 48 48 47 47 47 47 47 47 47 46 46 46 46 46 46 46 46 46 46 47 47 48 49 50 50 50 50 50 50 51 52 53 54 54 55 55
46 46 46 46 46 46 46 46 46 46 46 46 46 46 46 45 45 45 45 45 45 46 46 47 48 49 49 49 50 50 50 50 51 51 52 52 52 52
45 45 45 45 45 45 45 45 44 45 45 45 45 44 44 44 44 44 44 44 45 45 46 47 47 48 48 48 49 50 49 49 49 50 50 50 50 50
43 43 43 44 44 44 44 44 44 44 44 44 44 44 44 44 44 44 44 44 44 44 45 46 47 47 47 47 47 48 49 49 49 49 49 49 49 50
40 41 41 42 42 42 43 43 43 43 43 44 44 44 43 43 43 42 42 43 43 43 43 44 44 45 46 47 47 47 47 48 48 48 49 49 49 49
37 37 38 38 39 40 40 40 40 41 41 41 42 42 41 41 41 41 41 42 42 42 42 43 44 44 45 45 46 46 46 47 47 48 48 48 48 48
34 35 36 36 37 37 38 38 38 39 39 39 40 41 41 41 41 41 41 41 41 41 41 42 43 43 43 44 44 44 45 45 46 46 47 47 47 47
Wind_Direction
263 264 264 264 264 264 263 262 262 261 260 260 261 262 262 262 261 261 261 261 260 260 260 260 261 261 261 261 262 263 263 263 263 263 264 265 265 266
263 264 264 264 264 264 263 263 262 261 260 260 260 261 261 261 261 261 261 261 260 260 260 260 261 261 261 261 262 263 264 264 264 264 264 265 265 266
264 264 264 264 265 265 264 264 263 262 261 260 260 261 261 261 261 262 261 261 260 260 260 260 261 261 261 261 262 263 263 263 263 264 265 266 266 266
265 266 266 266 266 265 265 264 263 263 262 261 261 261 262 262 262 263 262 261 261 260 260 261 261 261 261 261 261 262 262 263 264 264 265 266 266 267
266 266 266 266 266 266 265 264 263 262 262 262 261 261 263 263 263 263 263 262 261 261 260 261 261 262 262 262 262 262 263 263 264 265 265 266 266 267
265 266 266 266 265 264 264 263 263 263 263 262 262 262 263 264 264 263 262 262 261 260 260 261 262 262 263 263 263 263 264 264 264 265 265 266 267 267
265 265 265 265 264 263 263 263 263 263 262 263 263 263 263 264 264 263 263 262 261 261 261 261 261 262 262 263 263 263 264 265 265 265 265 266 266 267
264 264 264 264 263 262 263 263 263 263 264 264 263 264 264 264 264 264 263 263 262 262 261 261 261 261 262 262 264 264 264 264 265 265 265 265 266 266
264 264 264 263 263 262 263 263 264 265 265 264 264 264 264 264 264 264 264 263 262 262 261 260 260 261 261 262 263 264 264 264 265 265 265 265 265 266
263 264 264 263 263 263 263 263 264 264 264 264 263 263 263 264 264 264 263 263 263 262 261 261 260 261 261 261 262 263 263 263 264 264 265 265 265 266
263 263 263 263 263 264 264 264 264 264 264 264 263 263 263 264 264 265 264 264 263 262 262 262 261 261 261 261 262 262 262 263 263 263 264 265 265 265
263 263 262 263 264 264 264 264 264 264 264 264 264 264 265 265 265 265 265 264 264 263 263 263 262 262 262 262 262 262 262 262 263 264 265 266 266 266
263 263 263 264 265 264 264 264 264 264 264 264 265 265 265 265 265 265 266 265 265 264 263 263 262 263 263 262 261 262 263 263 264 265 266 267 267 267
264 263 263 263 263 263 263 263 263 263 263 264 264 264 265 266 266 266 266 267 265 265 263 262 262 262 263 263 263 263 263 263 264 265 266 267 268 268
264 263 263 262 263 263 263 262 262 263 263 263 263 264 265 266 266 267 267 267 266 264 263 263 262 262 264 264 263 263 263 263 264 265 266 266 268 268
264 263 263 263 263 262 261 261 261 262 263 263 263 264 264 265 266 267 267 266 266 265 264 263 263 264 264 264 264 265 265 264 264 264 266 267 268 268
263 263 262 262 262 262 262 261 262 262 263 263 263 264 265 265 266 266 266 266 266 265 265 266 266 265 266 266 267 268 267 267 266 266 267 267 267 268
263 262 262 262 261 261 261 261 261 261 262 262 262 263 264 265 265 266 266 267 266 266 265 265 265 266 266 267 269 269 268 268 269 269 269 268 267 267
262 262 262 261 261 261 261 261 261 261 261 261 262 263 264 265 265 266 267 267 266 266 266 265 265 266 266 266 268 269 269 268 269 269 269 268 267 266
262 262 262 262 261 261 261 261 261 261 261 260 261 261 262 264 265 266 267 267 267 267 266 266 266 267 267 267 268 268 269 269 269 270 270 269 268 268
262 261 261 262 262 261 261 261 260 260 259 259 259 260 261 263 264 265 266 267 267 267 267 267 267 267 268 268 269 269 270 270 270 271 271 270 269 268
263 262 262 262 262 261 261 260 260 259 259 258 258 259 260 262 263 265 266 267 268 268 268 268 268 269 269 270 271 271 271 271 272 273 273 273 271 269
264 264 263 263 262 261 260 259 258 258 258 259 259 259 260 262 263 265 266 267 268 269 269 270 270 270 271 273 273 272 273 273 273 273 274 274 274 272
Height
5651 5651 5651 5651 5651 5652 5653 5655 5657 5659 5662 5663 5663 5664 5665 5666 5667 5669 5671 5672 5674 5676 5678 5679 5681 5683 5685 5686 5688 5689 5690 5692 5693 5694 5695 5696 5697 5698
5637 5637 5637 5637 5637 5638 5639 5640 5641 5643 5646 5649 5649 5649 5650 5652 5654 5655 5657 5659 5660 5662 5664 5665 5667 5669 5671 5673 5674 5676 5677 5678 5679 5680 5681 5682 5683 5684
5622 5623 5623 5623 5623 5623 5623 5625 5626 5628 5631 5633 5634 5635 5636 5638 5639 5641 5643 5644 5646 5648 5650 5651 5653 5655 5657 5658 5660 5661 5663 5664 5665 5666 5667 5668 5669 5670
5607 5608 5608 5608 5608 5608 5609 5610 5611 5612 5615 5618 5620 5620 5622 5623 5624 5626 5628 5629 5631 5633 5635 5636 5638 5640 5642 5643 5644 5646 5647 5649 5650 5651 5653 5654 5655 5655
5592 5593 5593 5593 5593 5593 5594 5595 5596 5597 5599 5602 5604 5605 5607 5607 5609 5611 5612 5614 5616 5617 5619 5621 5623 5624 5626 5627 5629 5630 5632 5634 5635 5635 5636 5637 5638 5639
5577 5577 5577 5578 5578 5578 5579 5580 5581 5582 5584 5586 5589 5590 5591 5592 5593 5595 5596 5597 5599 5601 5603 5605 5607 5608 5610 5611 5613 5614 5615 5616 5617 5619 5620 5621 5621 5622
5561 5561 5562 5562 5563 5563 5564 5565 5566 5568 5569 5570 5572 5574 5576 5576 5577 5578 5580 5581 5583 5584 5586 5588 5590 5592 5593 5594 5595 5597 5598 5599 5600 5601 5602 5603 5604 5605
5546 5546 5546 5547 5547 5548 5549 5551 5552 5553 5554 5555 5557 5558 5560 5560 5561 5562 5563 5565 5567 5569 5569 5571 5572 5574 5576 5577 5578 5579 5580 5581 5583 5584 5585 5586 5587 5587
5531 5531 5531 5532 5532 5533 5534 5536 5537 5537 5538 5540 5542 5543 5544 5545 5545 5546 5547 5548 5550 5551 5552 5555 5555 5557 5559 5560 5560 5561 5562 5564 5565 5566 5567 5568 5569 5570
5516 5516 5517 5517 5518 5519 5520 5521 5522 5523 5523 5524 5526 5528 5528 5528 5529 5530 5530 5531 5533 5534 5535 5538 5539 5540 5541 5542 5543 5544 5545 5546 5547 5548 5550 5551 5552 5553
5501 5502 5502 5503 5504 5504 5505 5507 5507 5507 5507 5508 5510 5511 5511 5512 5512 5513 5514 5515 5517 5518 5518 5520 5522 5523 5524 5525 5525 5526 5527 5528 5530 5531 5532 5533 5534 5535
5487 5487 5488 5488 5489 5489 5490 5491 5492 5493 5493 5493 5494 5495 5495 5496 5496 5497 5498 5499 5500 5502 5502 5503 5504 5505 5508 5509 5509 5509 5510 5511 5512 5514 5515 5515 5516 5517
5472 5473 5473 5474 5474 5474 5475 5476 5477 5477 5477 5478 5478 5479 5480 5480 5480 5481 5481 5482 5483 5485 5486 5486 5487 5487 5489 5492 5494 5493 5493 5494 5495 5496 5497 5497 5498 5499
5457 5458 5459 5459 5459 5459 5460 5461 5462 5462 5463 5463 5464 5464 5465 5465 5465 5465 5466 5466 5467 5468 5469 5469 5471 5472 5473 5475 5477 5478 5477 5477 5478 5479 5480 5480 5480 5481
5442 5443 5443 5444 5444 5444 5445 5446 5447 5447 5448 5449 5450 5450 5451 5451 5451 5451 5451 5451 5452 5452 5453 5454 5455 5456 5457 5459 5460 5461 5461 5462 5462 5463 5463 5463 5463 5464
5426 5427 5428 5428 5429 5430 5431 5432 5433 5434 5434 5435 5436 5436 5436 5437 5437 5437 5437 5437 5438 5438 5438 5439 5440 5441 5442 5443 5444 5445 5445 5445 5446 5446 5446 5446 5446 5446
5411 5412 5413 5414 5415 5416 5417 5418 5419 5419 5420 5421 5422 5422 5422 5423 5423 5423 5423 5424 5424 5424 5424 5424 5425 5426 5426 5427 5428 5429 5429 5429 5428 5428 5429 5430 5429 5429
5396 5397 5398 5399 5401 5402 5403 5404 5405 5405 5406 5407 5408 5408 5409 5409 5409 5409 5410 5410 5410 5411 5411 5411 5411 5411 5412 5412 5413 5413 5413 5413 5412 5412 5412 5413 5414 5414
5382 5383 5384 5385 5386 5387 5388 5389 5390 5391 5392 5393 5394 5395 5395 5396 5396 5396 5396 5396 5397 5397 5397 5397 5397 5397 5398 5399 5399 5398 5398 5398 5397 5397 5397 5397 5398 5399
5368 5369 5370 5371 5372 5373 5374 5375 5376 5377 5378 5379 5380 5381 5382 5382 5382 5383 5383 5383 5383 5383 5383 5383 5383 5383 5383 5384 5384 5384 5382 5382 5382 5382 5382 5381 5382 5382
5355 5355 5356 5357 5358 5359 5360 5361 5362 5363 5364 5365 5366 5367 5368 5369 5369 5370 5370 5370 5370 5370 5370 5370 5369 5369 5369 5369 5370 5370 5369 5367 5366 5367 5367 5367 5367 5367
5342 5343 5343 5344 5344 5345 5346 5347 5348 5349 5350 5351 5353 5354 5355 5355 5356 5356 5357 5357 5357 5357 5357 5356 5356 5355 5355 5355 5355 5355 5355 5354 5352 5351 5351 5351 5350 5352
5330 5331 5331 5331 5332 5332 5333 5334 5335 5336 5337 5338 5339 5341 5342 5342 5343 5343 5344 5344 5344 5344 5344 5343 5343 5342 5342 5342 5341 5341 5340 5340 5339 5338 5337 5335 5335 5335